Regional Weather Roundup
Issued by NWS Columbia, SC

Home | Current Version | Previous Version | Text Only | Print | Product List | Glossary On
Versions: 1 2 3 4 5 6 7 8 9 10 11 12 13 14 15 16 17 18 19 20 21 22 23 24 25 26 27 28 29 30 31 32 33 34 35 36 37 38 39 40 41 42 43 44 45 46 47 48 49 50
000
ASUS42 KCAE 222210
RWRCAE
REGIONAL WEATHER ROUNDUP
NATIONAL WEATHER SERVICE COLUMBIA SC
500 PM EST MON JAN 22 2018

NOTE: "FAIR" INDICATES FEW OR NO CLOUDS BELOW 12,000 FEET WITH NO
SIGNIFICANT WEATHER AND/OR OBSTRUCTIONS TO VISIBILITY.

NOT ALL STATIONS ARE QUALITY CONTROLLED BY THE NATIONAL
WEATHER SERVICE. USE DATA WITH CAUTION...ESPECIALLY
DEWPOINT OBSERVATIONS.

SCZ001>056-GAZ040-063>065-077-222300-
...UPSTATE SOUTH CAROLINA...

CITY           SKY/WX    TMP DP  RH WIND       PRES   REMARKS
ANDERSON       FAIR      57  51  80 E3        30.00F
LIBERTY        CLOUDY    52  51  98 NE6       30.01F
SPARTANBURG    CLOUDY    57  45  62 SE5       30.03F
CLEMSON        CLOUDY    53  51  93 NE5       30.01F
GREENVILLE     CLOUDY    58  47  66 E6        30.02F
GREENWOOD      FAIR      63  55  75 S9        30.02F
GREER          CLOUDY    57  46  66 E5        30.03F
ROCK HILL      MOCLDY    61  47  59 SE3       30.05F
CHESTER        MOCLDY    61  45  55 SE7       30.06S
LAURENS        CLOUDY    59  52  77 CALM      30.03S


...CENTRAL SOUTH CAROLINA...

CITY           SKY/WX    TMP DP  RH WIND       PRES   REMARKS
COLUMBIA APT   MOCLDY    67  51  56 E8        30.04F
COLUMBIA OWENS FAIR      67  49  52 CALM      30.05F
MCENTIRE ANGB  CLOUDY    66  53  63 E6        30.05F
ORANGEBURG     CLOUDY    69  57  65 SE7       30.05S
SUMTER SHAW    MOCLDY    66  52  59 E5        30.05R
NEWBERRY       MOCLDY    64  52  63 SE5       30.07R
AIKEN          CLOUDY    66  55  68 S5        30.07S
BARNWELL         N/A     72  61  68 SE6       30.04S
MANNING        FAIR      68  50  52 MISG      30.07F
CAMDEN         MOCLDY    63  48  59 CALM      30.08S
LANCASTER      FAIR      63  46  55 SE8       30.06F
WINNSBORO      FAIR      63  52  67 SE6       30.05F


...EASTERN AND COASTAL SOUTH CAROLINA...

CITY           SKY/WX    TMP DP  RH WIND       PRES   REMARKS
MYRTLE BEACH   CLOUDY    57  55  93 E3        30.12F
N MYRTLE BCH   FAIR      60  57  89 E6        30.11S
CONWAY         FAIR      59  57  94 CALM      30.11R FOG
MARION         MOCLDY    63  52  67 E3        30.10S
HARTSVILLE     MOCLDY    61  46  59 CALM      30.08S
FLORENCE       FAIR      65  53  65 SE7       30.09S
DARLINGTON     FAIR      61  49  64 E5        30.10R
CHARLESTON APT MOCLDY    68  61  78 SE10      30.07S
MOUNT PLEASANT MOCLDY    66  61  82 CALM      30.09R
WALTERBORO     MOCLDY    68  61  77 S8        30.07S
BEAUFORT       FAIR      66  61  84 SE7       30.06


...EASTERN GEORGIA...

CITY           SKY/WX    TMP DP  RH WIND       PRES   REMARKS
AUGUSTA BUSH F FAIR      70  58  65 SE6       30.01S
AUGUSTA DANIEL FAIR      70  58  65 SE6       30.02F
THOMSON        MOCLDY    67  58  72 SW5       30.05F
WASHINGTON     FAIR      63  59  88 CALM      29.99F
CLAXTON        FAIR      75  61  60 SE6       30.02S
SYLVANIA       FAIR      72  63  72 S3        30.05R
STATESBORO     MOCLDY    73  57  57 S7        30.03R
SAVANNAH       MOCLDY    71  62  73 S13       30.05


...SOUTHERN NORTH CAROLINA...

CITY           SKY/WX    TMP DP  RH WIND       PRES   REMARKS
CHARLOTTE      CLOUDY    61  44  53 S8        30.05F
MONROE         FAIR      60  45  57 CALM      30.06S
WADESBORO      FAIR      59  42  52 SE5       30.08S
ROCKINGHAM     FAIR      60  44  55 SE3       30.08S
RUTHERFORDTON  DRIZZLE   55  47  75 CALM      30.05S
ASHEVILLE      HVY RAIN  50  48  93 S7        30.03R FOG

$$



USA.gov is the U.S. government's official web portal to all federal, state and local government web resources and services.